Flag for U.S.A. Weather past 2 weeks in Harrisburg, Pennsylvania, U.S.A.

Now
47 °F

Mostly cloudy.


Feels Like: 42 °F
Forecast: 38 / 49 °F
Wind: 10 mph from Northwest

Location: Capital City Airport

Current Time: Mar 26, 2015 at 10:33:36 PM

Latest Report: Mar 26, 2015 at 9:56 PM


Visibility: 10 mi

Pressure: 29.76 "Hg

Humidity: 74%

Dew point: 39 °F

Location of HarrisburgLocation

Historic Weather in Harrisburg — Graph

°F

Harrisburg temperature yesterday

Maximum temperature yesterday: 42 °F (at 6:56 PM)
Minimum temperature yesterday: 24 °F (at 2:56 AM)
Average temperature yesterday: 33 °F

Past Weeks' High & Low Weather Summary

 TemperatureHumidityPressure
High71 °F (Mar 26, 4:56 PM)100% (Mar 14, 8:56 AM)30.64 "Hg (Mar 14, 8:56 AM)
Low24 °F (Mar 25, 2:56 AM)17% (Mar 12, 4:56 PM)29.57 "Hg (Mar 26, 4:56 PM)
Average39 °F57%30.15 "Hg
* Reported Mar 11 8:56 PM — Mar 26 8:56 PM, Harrisburg, Weather by CustomWeather, © 2015

Note: Actual official high and low records may vary slightly from our data, if they occured in-between our weather recording intervals... More about our weather records

Advertising

Harrisburg weather history for previous 24 hours

 ConditionsComfort  
Time TempWeatherWind HumidityBarometerVisibility
8:56 PM
Thu, Mar 26
50 °FOvercast.14 mph77%29.72 "Hg10 mi
7:56 PM54 °FMostly cloudy.15 mph72%29.69 "Hg10 mi
6:56 PM57 °FThunderstorms. Mostly cloudy.10 mph81%29.64 "Hg10 mi
6:03 PM58 °FRain. Fog.9 mph87%29.59 "Hg1 mi
5:56 PM68 °FScattered clouds.N/A63%29.57 "Hg10 mi
4:56 PM71 °FPartly sunny.14 mph57%29.57 "Hg10 mi
3:56 PM70 °FScattered clouds.14 mph59%29.59 "Hg10 mi
2:56 PM63 °FPartly sunny.8 mph63%29.64 "Hg8 mi
1:56 PM57 °FOvercast.10 mph67%29.69 "Hg7 mi
12:56 PM54 °FOvercast.10 mph67%29.75 "Hg7 mi
11:56 AM49 °FBroken clouds.7 mph71%29.80 "Hg6 mi
10:56 AM43 °FOvercast.5 mph79%29.88 "Hg5 mi
9:56 AM42 °FOvercast.5 mph82%29.90 "Hg5 mi
8:56 AM38 °FFog.5 mph90%29.93 "Hg3 mi
7:56 AM35 °FFog.No wind92%29.96 "Hg2 mi
6:56 AM35 °FFog.3 mph92%29.96 "Hg3 mi
5:56 AM33 °FFog.No wind92%29.99 "Hg4 mi
4:56 AM32 °FIce fog.No wind96%30.02 "Hg2 mi
3:56 AM33 °FFog.No wind92%30.05 "Hg4 mi
2:56 AM34 °FFog.5 mph92%30.07 "Hg6 mi
1:56 AM34 °FClear.5 mph92%30.09 "Hg7 mi
12:56 AM35 °FClear.No wind88%30.12 "Hg8 mi
11:56 PM
Wed, Mar 25
40 °FOvercast.No wind80%30.15 "Hg7 mi
10:56 PM38 °FOvercast.5 mph83%30.15 "Hg10 mi
Weather by CustomWeather, © 2015

See weather overviewHow to use our weather pages